ROMMA est une association bénévole à but non lucratif. Votre soutien est indispensable : ADHERER à ROMMA ou FAIRE un DON

Voiron - (38, Isère)

Voironnais (300 m)   Longitude: 05° 35' E   Latitude: 45° 23' N Station partenaire n°109
 

Détail journalier du     <<     >>

Température Precipitation Humidité Pression Vent Dir Rafale Dir. rafale Ensol.
Heure (°C) (mm) (%) (hPa) (km/h) (km/h) (min)
01:00 8.509410202O6O0
02:00 8.209410201ONO6NNO0
03:00 7.709410201NNO6NNO0
04:00 7.109410202NNO5NNO0
05:00 7.109510201NNO6NNO0
06:00 6.909410202NNO6NNO0
07:00 6.60.29410202E8SSE0
08:00 7.809310202N15ESE0
09:00 7.409210213NE13ESE0
10:00 9.308810219ESE26S60
11:00 10.6084102111SE29SE60
12:00 12.207510209SSE21SSE60
13:00 13.907210206SE19SSE60
14:00 15.206510197S18S60
15:00 16.306110185S13SE60
16:00 17.305410185SE15SE60
17:00 18.305310172S11S60
18:00 17.405910171ONO6SE60
19:00 14.807610172NO8NNO0
20:00 13.508110181NNO6NNO0
21:00 12.2084101805NNO0
22:00 11.3084101806SSO0
23:00 10.808610191SSO5SSO0
minuit 10.808710191SO5SO0

Graphique du 16-10-2019

 

Serveur OMMA